[[{"header":{"parameterUnit":"m.s-1","parameterCategory":1,"la1":30.2991,"la2":30.254,"lo1":-89.0895,"lo2":-89.0444,"dy":0.0017,"dx":0.0017,"nx":28,"ny":28,"refTime":"2024-10-11T03:00:00:Z","depth":0,"parameterNumber":2,"parameterNumberName":"U-component_of_WINDS"},"data":[0,0,0,0,0,0,0,0,0,0,0,0,0,0,0,0,0,0,0,0,0,0,0,0,0,0,0,0,0,0,0,0,0,0,0,0,0,0,0,0,0,0,0,0,0,0,0,0,0,0,0,0,0,0,0,0,0,0,-3.6571,-3.6571,0,-3.6601,-3.6602,-3.6602,-3.651,-3.6507,-3.6504,-3.6502,-3.6536,-3.654,-3.6543,0,0,0,0,0,0,0,0,0,0,0,0,0,-3.6439,-3.6442,-3.6571,-3.6571,-3.6572,-3.6601,-3.6602,-3.6602,-3.651,-3.6507,-3.6503,-3.65,-3.6535,-3.6539,-3.6544,0,0,0,0,0,0,0,0,0,0,0,0,0,-3.6486,-3.6443,-3.6571,-3.6529,-3.6526,-3.6601,-3.6602,-3.6602,-3.6511,-3.6507,-3.6503,-3.6499,-3.6534,-3.6539,-3.6544,-3.6662,0,0,-3.6561,-3.6563,0,0,0,0,0,0,0,0,-3.6483,-3.6491,-3.6535,-3.6532,-3.6529,-3.6547,-3.6568,-3.6623,-3.6512,-3.6517,-3.6501,-3.6497,-3.6544,-3.6548,-3.6563,-3.6664,-3.6665,-3.6561,-3.6564,-3.6567,-3.6568,0,0,0,0,0,0,0,-3.648,-3.6489,-3.6583,-3.6536,-3.6532,-3.6511,-3.6513,-3.6578,-3.6554,-3.6516,-3.6509,-3.6514,-3.6541,-3.6558,-3.6563,-3.6666,-3.6561,-3.6566,-3.6569,-3.6571,-3.6869,-3.6873,0,0,0,0,0,0,-3.6482,-3.6487,-3.6582,-3.6584,-3.6495,-3.6517,-3.6519,-3.6546,-3.6553,-3.655,-3.6518,-3.651,-3.6551,-3.6557,-3.6564,-3.6704,-3.6567,-3.6572,-3.6575,-3.6864,-3.687,-3.6875,0,0,0,0,0,0,-3.6479,-3.6491,-3.6581,-3.6534,-3.6544,-3.6524,-3.6554,-3.6549,-3.6565,-3.6554,-3.655,-3.6539,-3.6548,-3.6557,-3.6639,-3.6704,-3.6574,-3.6579,-3.6858,-3.6866,-3.6872,-3.6985,0,0,0,0,0,0,-3.6476,-3.6491,-3.6534,-3.6535,-3.6546,-3.6654,-3.6558,-3.6552,-3.6574,-3.6564,-3.6573,-3.657,-3.6545,-3.6632,-3.6644,-3.6709,-3.6583,-3.6852,-3.6862,-3.687,-3.6976,-3.6995,-3.7012,0,0,0,0,0,-3.6471,-3.6564,-3.6536,-3.6548,-3.6599,-3.6658,-3.6664,-3.6632,-3.658,-3.6624,-3.6618,-3.657,-3.6695,-3.6641,-3.6654,-3.6722,-3.6848,-3.6859,-3.6869,-3.6967,-3.6991,-3.7012,0,0,0,0,0,0,-3.6571,-3.6564,-3.6532,-3.6628,-3.6644,-3.6642,-3.6696,-3.6658,-3.669,-3.6679,-3.664,-3.6643,-3.6733,-3.6736,-3.6675,-3.6838,-3.6763,-3.6777,-3.6833,-3.6856,-3.6874,-3.6871,-3.6587,0,0,0,0,0,-3.6604,-3.6651,-3.6642,-3.6728,-3.6737,-3.6716,-3.674,-3.6714,-3.673,-3.6736,-3.6735,-3.6754,-3.6797,-3.6827,-3.6866,-3.6976,-3.6978,-3.703,-3.7048,-3.7063,-3.7075,-3.7137,-3.716,-3.6909,-3.6909,-3.6909,0,0,-3.6673,-3.6675,-3.6706,-3.6748,-3.6757,-3.6808,-3.6722,-3.6779,-3.6817,-3.6745,-3.6823,-3.6824,-3.6842,-3.6939,-3.6982,-3.6944,-3.7145,-3.7076,-3.7088,-3.7093,-3.715,-3.7174,-3.7195,-3.6917,-3.6915,-3.6914,0,0,-3.6825,-3.683,-3.6903,-3.6915,-3.693,-3.6915,-3.6934,-3.6938,-3.6935,-3.7012,-3.6961,-3.7007,-3.7082,-3.7097,-3.7115,-3.7277,-3.7236,-3.7292,-3.7387,-3.7447,-3.7467,-3.7484,-3.7544,-3.7565,-3.7304,-3.7304,-3.7304,0,-3.6908,-3.6981,-3.6945,-3.7007,-3.7028,-3.6965,-3.704,-3.7054,-3.7082,-3.7099,-3.7056,-3.7151,-3.7159,-3.726,-3.73,-3.7316,-3.7337,-3.729,-3.7467,-3.7484,-3.75,-3.7556,-3.7578,-3.7311,-3.731,-3.731,-3.7309,0,-3.7085,-3.7137,-3.7194,-3.7223,-3.725,-3.7318,-3.7295,-3.7328,-3.7301,-3.7292,-3.7374,-3.7381,-3.7422,-3.7445,-3.7419,-3.7544,-3.752,-3.7473,-3.7396,-3.7531,-3.7583,-3.7604,-3.7321,-3.7318,-3.7316,-3.7315,0,0,-3.7297,-3.7307,-3.7329,-3.7343,-3.7357,-3.7397,-3.7464,-3.7504,-3.7534,-3.7556,-3.7613,-3.768,-3.7637,-3.7657,-3.7633,-3.7686,-3.7817,-3.7633,-3.7633,-3.7668,-3.7958,-3.7994,-3.802,-3.779,-3.7794,-3.7797,-3.7957,0,-3.7448,-3.756,-3.7532,-3.7645,-3.7694,-3.7637,-3.7696,-3.7713,-3.7707,-3.775,-3.7744,-3.7793,-3.7732,-3.7744,-3.7794,-3.7791,-3.7875,-3.7779,-3.7844,-3.7847,-3.7841,-3.8046,-3.8084,-3.8234,-3.7977,-3.7981,-3.7983,0,-3.7637,-3.7667,-3.7785,-3.7794,-3.7814,-3.7866,-3.7902,-3.7943,-3.7962,-3.7955,-3.798,-3.7946,-3.8015,-3.7939,-3.8035,-3.797,-3.7995,-3.7999,-3.8004,-3.8008,-3.7923,-3.8058,-3.8281,-3.8304,-3.8015,-3.8012,-3.801,0,-3.7782,-3.7852,-3.7932,-3.7946,-3.7958,-3.7997,-3.8004,-3.8019,-3.8045,-3.8078,-3.8095,-3.8135,-3.8158,-3.8191,-3.817,-3.8116,-3.8271,-3.8192,-3.8269,-3.8269,-3.8303,-3.8301,-3.8535,-3.8319,-3.8319,-3.8319,-3.8318,0,-3.7953,-3.8027,-3.7998,-3.8047,-3.8131,-3.8099,-3.8183,-3.8184,-3.8198,-3.8249,-3.8203,-3.8252,-3.8221,-3.8269,-3.8254,-3.8337,-3.8347,-3.8345,-3.834,-3.8349,-3.8349,-3.8365,-3.8354,-3.8324,-3.8323,-3.8322,-3.8321,0,-3.8128,-3.8111,-3.8195,-3.8201,-3.8204,-3.8265,-3.8271,-3.8318,-3.8311,-3.8375,-3.8389,-3.8378,-3.8431,-3.8414,-3.8472,-3.8462,-3.8568,-3.855,-3.8562,-3.8557,-3.8635,-3.8628,-3.8887,-3.892,-3.8683,-3.8685,-3.8687,0,-3.8238,-3.8294,-3.8306,-3.8336,-3.8347,-3.8396,-3.8423,-3.8396,-3.8427,-3.8455,-3.85,-3.8549,-3.8587,-3.8676,-3.8674,-3.8719,-3.8702,-3.879,-3.8708,-3.8717,-3.8705,-3.8702,-3.8709,-3.8806,-3.8809,-3.8811,-3.8813,0,-3.8435,-3.8425,-3.8465,-3.8505,-3.8539,-3.8568,-3.8594,-3.8622,-3.8596,-3.8634,-3.8688,-3.8718,-3.8778,-3.8828,-3.887,-3.888,-3.8844,-3.8839,-3.8859,-3.8869,-3.8874,-3.8874,-3.8606,-3.8832,-3.883,-3.8829,-3.8828,-3.8827,-3.8582,-3.863,-3.8647,-3.8695,-3.8712,-3.8738,-3.8783,-3.8782,-3.8826,-3.8872,-3.8854,-3.8917,-3.8938,-3.899,-3.9006,-3.9056,-3.9023,-3.9052,-3.9059,-3.9067,-3.9078,-3.8866,-3.9064,-3.9063,-3.9063,-3.9062,-3.9062,0,-3.8778,-3.8787,-3.8831,-3.8869,-3.8908,-3.8869,-3.8897,-3.8932,-3.8988,-3.901,-3.9049,-3.9114,-3.9164,-3.9167,-3.9215,-3.9255,-3.924,-3.9268,-3.9265,-3.9269,-3.9104,-3.9082,-3.928,-3.928,-3.928,-3.928,-3.928,-3.928,-3.8884,-3.8965,-3.8958,-3.9048,-3.9056,-3.9117,-3.9136,-3.9161,-3.9179,-3.9253,-3.9294,-3.9295,-3.9311,-3.936,-3.9406,-3.9406,-3.9426,-3.9462,-3.9456,-3.9302,-3.928,-3.9259,-3.9238,-3.9466,-3.9466,-3.9616,-3.9617,-3.9618]},{"header":{"parameterUnit":"m.s-1","parameterCategory":1,"la1":30.2991,"la2":30.254,"lo1":-89.0895,"lo2":-89.0444,"dy":0.0017,"dx":0.0017,"nx":28,"ny":28,"refTime":"2024-10-11T03:00:00:Z","depth":0,"parameterNumber":3,"parameterNumberName":"V-component_of_WINDS"},"data":[0,0,0,0,0,0,0,0,0,0,0,0,0,0,0,0,0,0,0,0,0,0,0,0,0,0,0,0,0,0,0,0,0,0,0,0,0,0,0,0,0,0,0,0,0,0,0,0,0,0,0,0,0,0,0,0,0,0,0.8106,0.8106,0,0.8094,0.8094,0.8093,0.8134,0.8135,0.8137,0.8138,0.8119,0.8117,0.8116,0,0,0,0,0,0,0,0,0,0,0,0,0,0.8161,0.8159,0.8106,0.8106,0.8106,0.8094,0.8094,0.8093,0.8134,0.8135,0.8137,0.8138,0.8119,0.8117,0.8115,0,0,0,0,0,0,0,0,0,0,0,0,0,0.8141,0.8159,0.8106,0.8125,0.8127,0.8094,0.8094,0.8093,0.8134,0.8135,0.8137,0.8139,0.812,0.8118,0.8115,0.8062,0,0,0.8107,0.8106,0,0,0,0,0,0,0,0,0.8142,0.8139,0.8122,0.8124,0.8125,0.8118,0.8106,0.8083,0.8133,0.8131,0.8138,0.814,0.8116,0.8114,0.8108,0.8061,0.806,0.8107,0.8106,0.8105,0.8104,0,0,0,0,0,0,0,0.8144,0.814,0.8101,0.8122,0.8124,0.8132,0.8132,0.8102,0.8113,0.8131,0.8134,0.8132,0.8118,0.811,0.8108,0.806,0.8107,0.8105,0.8104,0.8103,0.7968,0.7966,0,0,0,0,0,0,0.8143,0.8141,0.8102,0.8101,0.8139,0.813,0.8129,0.8118,0.8114,0.8115,0.8131,0.8134,0.8113,0.811,0.8107,0.8043,0.8105,0.8102,0.8101,0.797,0.7968,0.7965,0,0,0,0,0,0,0.8144,0.8139,0.8102,0.8122,0.8118,0.8127,0.8114,0.8117,0.8109,0.8113,0.8115,0.8121,0.8115,0.8111,0.8073,0.8043,0.8101,0.8099,0.7973,0.7969,0.7967,0.7916,0,0,0,0,0,0,0.8146,0.814,0.812,0.8121,0.8116,0.807,0.8112,0.8115,0.8106,0.811,0.8105,0.8106,0.8116,0.8077,0.8071,0.8041,0.8097,0.7975,0.7971,0.7968,0.792,0.7912,0.7904,0,0,0,0,0,0.8147,0.8106,0.8119,0.8114,0.8093,0.8068,0.8065,0.808,0.8103,0.8083,0.8086,0.8106,0.8048,0.8072,0.8066,0.8035,0.7977,0.7972,0.7968,0.7924,0.7913,0.7904,0,0,0,0,0,0,0.8099,0.8106,0.8121,0.8079,0.8073,0.8075,0.805,0.8068,0.8053,0.8058,0.8075,0.8073,0.8032,0.803,0.8057,0.7983,0.8016,0.801,0.7985,0.7975,0.7967,0.7967,0.8095,0,0,0,0,0,0.8084,0.8065,0.8071,0.8033,0.803,0.804,0.803,0.8042,0.8035,0.8032,0.8032,0.8024,0.8004,0.799,0.7972,0.7921,0.7919,0.7897,0.7889,0.7882,0.7875,0.7847,0.7836,0.795,0.795,0.795,0,0,0.8052,0.8053,0.8039,0.8024,0.802,0.7998,0.8038,0.8013,0.7996,0.8028,0.7992,0.7992,0.7984,0.7939,0.792,0.7936,0.7844,0.7876,0.7871,0.7868,0.7841,0.783,0.7821,0.7947,0.7948,0.7948,0,0,0.7981,0.7981,0.7949,0.7945,0.794,0.7948,0.794,0.794,0.7942,0.7907,0.7931,0.791,0.7876,0.7868,0.786,0.7788,0.7804,0.7781,0.7737,0.771,0.7701,0.7693,0.7665,0.7655,0.7775,0.7775,0.7775,0,0.794,0.7909,0.7929,0.7903,0.7894,0.7925,0.7891,0.7886,0.7875,0.7867,0.7887,0.7845,0.7841,0.7795,0.7777,0.777,0.776,0.778,0.7701,0.7693,0.7686,0.7659,0.7649,0.7772,0.7773,0.7773,0.7773,0,0.7859,0.7837,0.7812,0.7802,0.7791,0.7761,0.7774,0.776,0.7774,0.7779,0.7742,0.774,0.7721,0.7712,0.7723,0.7666,0.7677,0.7698,0.7732,0.7672,0.7647,0.7637,0.7768,0.7769,0.777,0.7771,0,0,0.7755,0.7758,0.7748,0.7743,0.7741,0.7724,0.7695,0.7679,0.7665,0.7657,0.7631,0.7602,0.7622,0.7613,0.7625,0.7601,0.7541,0.7625,0.7625,0.7607,0.7475,0.7457,0.7445,0.7554,0.7552,0.7551,0.7475,0,0.7683,0.7635,0.7653,0.7602,0.7582,0.7611,0.7586,0.7581,0.7585,0.7566,0.7571,0.7549,0.7579,0.7573,0.7551,0.7553,0.7514,0.7559,0.7527,0.7526,0.7526,0.7433,0.7413,0.7342,0.7466,0.7464,0.7463,0,0.7593,0.7583,0.7531,0.7532,0.7524,0.7501,0.7487,0.747,0.7464,0.7469,0.7459,0.7476,0.7446,0.7482,0.7439,0.7469,0.7458,0.7457,0.7454,0.7449,0.7489,0.7422,0.732,0.7308,0.7449,0.745,0.7451,0,0.7519,0.7493,0.7458,0.7454,0.7455,0.7438,0.7437,0.7434,0.7423,0.741,0.7403,0.7387,0.7377,0.7363,0.7375,0.74,0.7329,0.7366,0.733,0.7329,0.7311,0.7311,0.7202,0.7308,0.7308,0.7308,0.7309,0,0.7436,0.7402,0.7425,0.7403,0.7366,0.7386,0.7349,0.7351,0.7348,0.7326,0.7351,0.7329,0.7347,0.7326,0.7335,0.7297,0.7293,0.7294,0.7296,0.729,0.729,0.7281,0.7285,0.7306,0.7306,0.7307,0.7307,0,0.7346,0.736,0.7324,0.7329,0.7329,0.7301,0.7305,0.7284,0.7291,0.7263,0.7257,0.7267,0.7244,0.7255,0.7231,0.7237,0.7187,0.7197,0.7189,0.7191,0.7153,0.7155,0.7032,0.7015,0.7134,0.7133,0.7132,0,0.729,0.7266,0.7268,0.7257,0.7255,0.7235,0.7225,0.7244,0.7231,0.7223,0.7203,0.7183,0.7167,0.7129,0.7133,0.7114,0.7122,0.708,0.7119,0.7114,0.7118,0.7119,0.7115,0.7071,0.707,0.7069,0.7068,0,0.719,0.7198,0.7183,0.717,0.7158,0.7148,0.714,0.7129,0.7148,0.7132,0.711,0.7099,0.7075,0.7053,0.7037,0.7035,0.7053,0.7056,0.7046,0.7038,0.7034,0.7033,0.7165,0.7058,0.7059,0.706,0.706,0.7061,0.7114,0.7093,0.7091,0.7073,0.707,0.7063,0.7043,0.7049,0.7031,0.7015,0.7027,0.7,0.6995,0.6975,0.697,0.6948,0.6965,0.6951,0.6947,0.6942,0.6936,0.704,0.6946,0.6946,0.6946,0.6947,0.6947,0,0.7012,0.7013,0.6997,0.6986,0.6972,0.6995,0.6987,0.6973,0.695,0.6944,0.6929,0.6903,0.6883,0.6886,0.6867,0.6849,0.6857,0.6843,0.6843,0.6841,0.6924,0.6933,0.6837,0.6837,0.6837,0.6837,0.6837,0.6837,0.6957,0.6923,0.6931,0.6894,0.6895,0.6871,0.6865,0.6857,0.6853,0.6823,0.6807,0.6811,0.6808,0.6789,0.6771,0.6772,0.6763,0.6745,0.6749,0.6825,0.6836,0.6846,0.6855,0.6744,0.6743,0.6668,0.6668,0.6667]}]]